| time (UTC) | temp F | wind direction | speed MPH | gust MPH | rain 1hr in | rain 24hr in | rain mn in | humidity % | barometer mb |
| 20260509234535 | 81 | 96 | 0.0 | 7.0 | 0.00 | 0.31 | 0.01 | 34 | 1007.7 |
| 20260509233033 | 82 | 105 | 0.0 | 5.0 | 0.00 | 0.31 | 0.01 | 31 | 1007.7 |
| 20260509231531 | 83 | 106 | 1.0 | 7.0 | 0.00 | 0.31 | 0.01 | 33 | 1007.8 |
| 20260509230033 | 84 | 98 | 0.0 | 5.0 | 0.00 | 0.31 | 0.01 | 35 | 1007.9 |
| 20260509224530 | 84 | 93 | 3.0 | 9.0 | 0.00 | 0.31 | 0.01 | 33 | 1008.0 |
| 20260509223026 | 84 | 97 | 2.0 | 8.0 | 0.00 | 0.31 | 0.01 | 32 | 1008.1 |
| 20260509221525 | 85 | 93 | 1.0 | 8.0 | 0.00 | 0.31 | 0.01 | 32 | 1008.1 |
| 20260509220025 | 86 | 113 | 2.0 | 8.0 | 0.00 | 0.31 | 0.01 | 25 | 1008.3 |
| 20260509214524 | 85 | 100 | 2.0 | 8.0 | 0.00 | 0.31 | 0.01 | 19 | 1008.2 |
| 20260509213028 | 85 | 96 | 0.0 | 7.0 | 0.00 | 0.31 | 0.01 | 27 | 1008.4 |
| 20260509211520 | 85 | 102 | 1.0 | 6.0 | 0.00 | 0.31 | 0.01 | 24 | 1008.5 |
| 20260509210019 | 85 | 98 | 2.0 | 7.0 | 0.00 | 0.31 | 0.01 | 29 | 1008.7 |
| 20260509204517 | 85 | 101 | 0.0 | 6.0 | 0.00 | 0.31 | 0.01 | 29 | 1008.9 |
| 20260509203017 | 86 | 93 | 0.0 | 7.0 | 0.00 | 0.31 | 0.01 | 31 | 1009.0 |
| 20260509201513 | 86 | 90 | 1.0 | 9.0 | 0.00 | 0.31 | 0.01 | 31 | 1009.1 |
| 20260509200013 | 85 | 96 | 2.0 | 6.0 | 0.00 | 0.31 | 0.01 | 33 | 1009.2 |
| 20260509194511 | 85 | 95 | 0.0 | 7.0 | 0.00 | 0.31 | 0.01 | 35 | 1009.4 |
| 20260509193021 | 86 | 94 | 1.0 | 4.0 | 0.00 | 0.31 | 0.01 | 28 | 1009.6 |
| 20260509191510 | 85 | 103 | 1.0 | 6.0 | 0.00 | 0.31 | 0.01 | 26 | 1009.7 |
| 20260509190007 | 85 | 173 | 0.0 | 6.0 | 0.00 | 0.31 | 0.01 | 32 | 1009.6 |
| 20260509184519 | 85 | 102 | 2.0 | 8.0 | 0.00 | 0.31 | 0.01 | 32 | 1009.7 |
| 20260509183005 | 84 | 94 | 1.0 | 3.0 | 0.00 | 0.31 | 0.01 | 32 | 1009.9 |
| 20260509181502 | 84 | 139 | 0.0 | 2.0 | 0.00 | 0.31 | 0.01 | 42 | 1010.0 |
| 20260509174620 | 82 | 135 | 0.0 | 1.0 | 0.00 | 0.31 | 0.01 | 49 | 1010.5 |
| 20260509173059 | 81 | 131 | 0.0 | 3.0 | 0.00 | 0.31 | 0.01 | 54 | 1010.6 |
| 20260509171552 | 80 | 92 | 0.0 | 4.0 | 0.00 | 0.31 | 0.01 | 58 | 1010.7 |
| 20260509170051 | 81 | 107 | 0.0 | 3.0 | 0.00 | 0.31 | 0.01 | 61 | 1010.8 |
| 20260509164547 | 79 | 130 | 0.0 | 3.0 | 0.00 | 0.31 | 0.01 | 62 | 1010.9 |
| 20260509163044 | 78 | 131 | 0.0 | 4.0 | 0.00 | 0.31 | 0.01 | 65 | 1011.0 |
| 20260509161541 | 77 | 103 | 0.0 | 1.0 | 0.00 | 0.31 | 0.01 | 70 | 1011.0 |
| 20260509160037 | 75 | 101 | 0.0 | 2.0 | 0.00 | 0.31 | 0.01 | 73 | 1011.0 |
| 20260509154532 | 73 | 98 | 0.0 | 2.0 | 0.00 | 0.31 | 0.01 | 80 | 1010.8 |
| 20260509153039 | 71 | 95 | 0.0 | 3.0 | 0.00 | 0.31 | 0.01 | 89 | 1010.7 |
| 20260509151523 | 69 | 96 | 0.0 | 1.0 | 0.00 | 0.31 | 0.01 | 95 | 1010.8 |
| 20260509150021 | 68 | 97 | 0.0 | 1.0 | 0.00 | 0.31 | 0.01 | 97 | 1010.9 |
| 20260509144523 | 66 | 98 | 0.0 | 1.0 | 0.00 | 0.31 | 0.01 | 98 | 1010.9 |
| 20260509143013 | 63 | 97 | 0.0 | 0.0 | 0.00 | 0.31 | 0.01 | 98 | 1011.0 |
| 20260509141509 | 61 | 94 | 0.0 | 0.0 | 0.00 | 0.31 | 0.01 | 98 | 1011.0 |
| 20260509140008 | 60 | 138 | 0.0 | 0.0 | 0.00 | 0.31 | 0.01 | 97 | 1010.9 |
| 20260509134504 | 59 | 138 | 0.0 | 0.0 | 0.00 | 0.31 | 0.01 | 97 | 1010.8 |
| 20260509133002 | 58 | 138 | 0.0 | 0.0 | 0.00 | 0.31 | 0.01 | 97 | 1010.6 |
| 20260509131601 | 57 | 138 | 0.0 | 0.0 | 0.00 | 0.31 | 0.01 | 97 | 1010.3 |
| 20260509130108 | 57 | 138 | 0.0 | 0.0 | 0.00 | 0.31 | 0.01 | 97 | 1010.3 |
| 20260509124559 | 56 | 138 | 0.0 | 0.0 | 0.00 | 0.31 | 0.01 | 97 | 1010.1 |
| 20260509123059 | 55 | 138 | 0.0 | 0.0 | 0.00 | 0.31 | 0.01 | 97 | 1010.0 |
| 20260509121627 | 55 | 138 | 0.0 | 0.0 | 0.00 | 0.31 | 0.01 | 97 | 1009.9 |
| 20260509120057 | 54 | 138 | 0.0 | 0.0 | 0.00 | 0.31 | 0.01 | 97 | 1009.7 |
| 20260509114603 | 54 | 138 | 0.0 | 0.0 | 0.00 | 0.31 | 0.01 | 97 | 1009.7 |
| 20260509113100 | 54 | 138 | 0.0 | 0.0 | 0.00 | 0.31 | 0.01 | 97 | 1009.5 |
| 20260509111555 | 54 | 138 | 0.0 | 0.0 | 0.00 | 0.31 | 0.01 | 97 | 1009.4 |
| 20260509110100 | 54 | 138 | 0.0 | 0.0 | 0.00 | 0.31 | 0.01 | 97 | 1009.4 |
| 20260509104554 | 54 | 138 | 0.0 | 0.0 | 0.00 | 0.31 | 0.01 | 97 | 1009.5 |
| 20260509103101 | 54 | 138 | 0.0 | 0.0 | 0.00 | 0.31 | 0.01 | 97 | 1009.5 |
| 20260509101603 | 54 | 138 | 0.0 | 0.0 | 0.00 | 0.31 | 0.01 | 97 | 1009.5 |
| 20260509100051 | 54 | 138 | 0.0 | 0.0 | 0.00 | 0.31 | 0.01 | 97 | 1009.5 |
| 20260509094602 | 54 | 138 | 0.0 | 0.0 | 0.00 | 0.31 | 0.01 | 97 | 1009.4 |
| 20260509093050 | 55 | 138 | 0.0 | 0.0 | 0.00 | 0.31 | 0.01 | 97 | 1009.6 |
| 20260509091548 | 54 | 138 | 0.0 | 0.0 | 0.00 | 0.31 | 0.01 | 97 | 1009.6 |
| 20260509090057 | 55 | 138 | 0.0 | 0.0 | 0.00 | 0.31 | 0.01 | 97 | 1009.7 |
| 20260509084549 | 55 | 138 | 0.0 | 0.0 | 0.00 | 0.31 | 0.01 | 96 | 1009.7 |
| 20260509083054 | 55 | 138 | 0.0 | 0.0 | 0.00 | 0.31 | 0.01 | 96 | 1009.8 |
| 20260509081541 | 56 | 138 | 0.0 | 0.0 | 0.00 | 0.31 | 0.01 | 96 | 1009.7 |
| 20260509080045 | 56 | 138 | 0.0 | 0.0 | 0.00 | 0.31 | 0.01 | 96 | 1009.8 |
| 20260509074544 | 56 | 139 | 0.0 | 0.0 | 0.00 | 0.31 | 0.01 | 96 | 1009.9 |
| 20260509073039 | 57 | 139 | 0.0 | 0.0 | 0.00 | 0.31 | 0.01 | 96 | 1010.0 |
| 20260509071542 | 57 | 139 | 0.0 | 0.0 | 0.00 | 0.31 | 0.01 | 96 | 1010.1 |
| 20260509070035 | 57 | 139 | 0.0 | 0.0 | 0.01 | 0.31 | 0.01 | 96 | 1010.3 |
| 20260509064534 | 57 | 139 | 0.0 | 0.0 | 0.01 | 0.31 | 0.01 | 96 | 1010.3 |
| 20260509063033 | 58 | 139 | 0.0 | 0.0 | 0.01 | 0.31 | 0.01 | 96 | 1010.3 |
| 20260509061530 | 58 | 139 | 0.0 | 0.0 | 0.01 | 0.31 | 0.01 | 96 | 1010.4 |
| 20260509060030 | 58 | 139 | 0.0 | 0.0 | 0.00 | 0.30 | 0.00 | 96 | 1010.3 |
| 20260509054531 | 58 | 139 | 0.0 | 0.0 | 0.00 | 0.30 | 0.00 | 96 | 1010.1 |
| 20260509053039 | 58 | 139 | 0.0 | 0.0 | 0.00 | 0.30 | 0.00 | 96 | 1009.8 |
| 20260509051524 | 59 | 139 | 0.0 | 0.0 | 0.00 | 0.30 | 0.00 | 96 | 1010.0 |
| 20260509050022 | 59 | 139 | 0.0 | 0.0 | 0.00 | 0.30 | 0.30 | 96 | 1010.2 |
| 20260509044521 | 59 | 139 | 0.0 | 0.0 | 0.00 | 0.30 | 0.30 | 95 | 1010.2 |
| 20260509043020 | 60 | 139 | 0.0 | 0.0 | 0.00 | 0.30 | 0.30 | 95 | 1010.1 |
| 20260509041519 | 60 | 139 | 0.0 | 0.0 | 0.00 | 0.30 | 0.30 | 95 | 1010.2 |
| 20260509040027 | 60 | 139 | 0.0 | 0.0 | 0.00 | 0.30 | 0.30 | 95 | 1010.3 |
| 20260509034518 | 60 | 139 | 0.0 | 0.0 | 0.00 | 0.30 | 0.30 | 95 | 1010.1 |
| 20260509033019 | 61 | 139 | 0.0 | 0.0 | 0.00 | 0.30 | 0.30 | 95 | 1010.0 |
| 20260509031517 | 61 | 139 | 0.0 | 1.0 | 0.00 | 0.30 | 0.30 | 95 | 1009.8 |
| 20260509030031 | 61 | 132 | 0.0 | 0.0 | 0.00 | 0.30 | 0.30 | 95 | 1009.8 |
| 20260509024517 | 61 | 132 | 0.0 | 1.0 | 0.00 | 0.30 | 0.30 | 95 | 1009.3 |
| 20260509023018 | 61 | 106 | 0.0 | 0.0 | 0.00 | 0.30 | 0.30 | 94 | 1009.1 |
| 20260509021518 | 62 | 106 | 0.0 | 1.0 | 0.02 | 0.30 | 0.30 | 94 | 1008.6 |
| 20260509020015 | 62 | 98 | 0.0 | 4.0 | 0.02 | 0.30 | 0.30 | 94 | 1008.0 |
| 20260509014515 | 62 | 98 | 0.0 | 5.0 | 0.02 | 0.30 | 0.30 | 94 | 1007.5 |
| 20260509013015 | 63 | 96 | 0.0 | 4.0 | 0.07 | 0.30 | 0.30 | 93 | 1007.6 |
| 20260509011514 | 63 | 103 | 0.0 | 6.0 | 0.13 | 0.28 | 0.28 | 93 | 1007.6 |
| 20260509010013 | 63 | 94 | 1.0 | 5.0 | 0.17 | 0.28 | 0.28 | 93 | 1007.4 |
| 20260509004522 | 63 | 96 | 0.0 | 4.0 | 0.28 | 0.28 | 0.28 | 91 | 1007.4 |
| 20260509003013 | 63 | 138 | 0.0 | 4.0 | 0.21 | 0.21 | 0.21 | 88 | 1007.9 |
| 20260509001513 | 63 | 110 | 0.0 | 4.0 | 0.15 | 0.15 | 0.15 | 86 | 1007.4 |
| 20260509000009 | 66 | 91 | 0.0 | 7.0 | 0.09 | 0.09 | 0.09 | 76 | 1008.0 |